When you browse on this site, cookies collect data to enhance your experience and personalize the content and advertising you see.
Visit our Privacy Policy to learn more. By continuing to use the site, you agree to this use of cookies and data.
  • In Denmark
  • List of Countries
  • For 7 days
  • Water Temperature
  • Weather Map
  • Weather Widgets
  • user-avatar
    Login

    Hourly Weather Chroscin

    Today, 17 September, Tuesday

    Time Temperature Precipitation Wind Pressure Humidity
    00:00 +8°C° 0 mm 4 mps 749 mmHg 79%
    01:00 +8°C° 0 mm 4 mps 749 mmHg 81%
    02:00 +7°C° 0 mm 4 mps 748 mmHg 83%
    03:00 +7°C° 0 mm 4 mps 748 mmHg 85%
    04:00 +7°C° 0 mm 4 mps 748 mmHg 87%
    05:00 +8°C° 0 mm 4 mps 748 mmHg 84%
    06:00 +8°C° 0 mm 5 mps 747 mmHg 81%
    07:00 +9°C° 0 mm 5 mps 747 mmHg 77%
    08:00 +10°C° 0 mm 6 mps 747 mmHg 71%
    09:00 +11°C° 0 mm 7 mps 747 mmHg 65%
    10:00 +12°C° 0 mm 7 mps 746 mmHg 59%
    11:00 +13°C° 0.1 mm 8 mps 746 mmHg 57%
    12:00 +13°C° 0.1 mm 8 mps 745 mmHg 55%
    13:00 +13°C° 0.1 mm 9 mps 744 mmHg 53%
    14:00 +13°C° 0.3 mm 9 mps 744 mmHg 58%
    15:00 +12°C° 0.3 mm 9 mps 744 mmHg 63%
    16:00 +11°C° 0.3 mm 9 mps 743 mmHg 68%
    17:00 +10°C° 0.9 mm 8 mps 743 mmHg 72%
    18:00 +9°C° 0.9 mm 7 mps 743 mmHg 76%
    19:00 +8°C° 0.9 mm 6 mps 743 mmHg 79%
    20:00 +8°C° 0.1 mm 7 mps 743 mmHg 79%
    21:00 +6°C° 0.1 mm 7 mps 743 mmHg 79%
    22:00 +6°C° 0.1 mm 8 mps 742 mmHg 78%
    23:00 +5°C° 0 mm 8 mps 742 mmHg 78%

    Tomorrow, 18 September, Wednesday

    Time Temperature Precipitation Wind Pressure Humidity
    00:00 +5°C° 0 mm 8 mps 743 mmHg 78%
    01:00 +5°C° 0 mm 8 mps 743 mmHg 78%
    02:00 +5°C° 0.1 mm 9 mps 743 mmHg 79%
    03:00 +5°C° 0.1 mm 9 mps 743 mmHg 81%
    04:00 +5°C° 0.1 mm 9 mps 743 mmHg 82%
    05:00 +6°C° 0.1 mm 9 mps 744 mmHg 80%
    06:00 +7°C° 0.1 mm 9 mps 745 mmHg 78%
    07:00 +7°C° 0.1 mm 10 mps 746 mmHg 75%
    08:00 +8°C° 0 mm 9 mps 747 mmHg 70%
    09:00 +10°C° 0 mm 9 mps 748 mmHg 65%
    10:00 +11°C° 0 mm 9 mps 749 mmHg 60%
    11:00 +12°C° 0 mm 9 mps 749 mmHg 57%
    12:00 +12°C° 0 mm 8 mps 749 mmHg 54%
    13:00 +13°C° 0 mm 8 mps 749 mmHg 51%
    14:00 +14°C° 0 mm 7 mps 750 mmHg 50%
    15:00 +14°C° 0 mm 7 mps 750 mmHg 49%
    16:00 +14°C° 0 mm 6 mps 750 mmHg 48%
    17:00 +13°C° 0 mm 5 mps 751 mmHg 52%
    18:00 +12°C° 0 mm 5 mps 751 mmHg 56%
    19:00 +11°C° 0 mm 4 mps 751 mmHg 60%
    20:00 +10°C° 0 mm 4 mps 752 mmHg 66%
    21:00 +8°C° 0 mm 4 mps 752 mmHg 73%
    22:00 +7°C° 0 mm 4 mps 753 mmHg 80%
    23:00 +7°C° 0.1 mm 4 mps 753 mmHg 82%

    Day after tomorrow, 19 September, Thursday

    Time Temperature Precipitation Wind Pressure Humidity
    00:00 +7°C° 0.1 mm 4 mps 753 mmHg 84%
    01:00 +7°C° 0.1 mm 4 mps 753 mmHg 85%
    02:00 +6°C° 0 mm 4 mps 753 mmHg 87%
    03:00 +6°C° 0 mm 4 mps 753 mmHg 90%
    04:00 +5°C° 0 mm 4 mps 753 mmHg 92%
    05:00 +6°C° 0 mm 4 mps 753 mmHg 89%
    06:00 +6°C° 0 mm 5 mps 753 mmHg 87%
    07:00 +7°C° 0 mm 5 mps 754 mmHg 84%
    08:00 +8°C° 0 mm 5 mps 754 mmHg 78%
    09:00 +10°C° 0 mm 5 mps 754 mmHg 72%
    10:00 +13°C° 0 mm 4 mps 755 mmHg 66%
    11:00 +13°C° 0.1 mm 5 mps 755 mmHg 60%
    12:00 +14°C° 0.1 mm 5 mps 755 mmHg 53%
    13:00 +15°C° 0.1 mm 5 mps 755 mmHg 47%
    14:00 +15°C° 0.2 mm 5 mps 755 mmHg 49%
    15:00 +14°C° 0.2 mm 5 mps 755 mmHg 50%
    16:00 +14°C° 0.2 mm 5 mps 755 mmHg 52%
    17:00 +12°C° 0 mm 4 mps 755 mmHg 59%
    18:00 +10°C° 0 mm 4 mps 756 mmHg 65%
    19:00 +9°C° 0 mm 3 mps 756 mmHg 72%
    20:00 +8°C° 0 mm 3 mps 756 mmHg 74%
    21:00 +7°C° 0 mm 3 mps 757 mmHg 76%
    22:00 +7°C° 0 mm 2 mps 757 mmHg 77%
    23:00 +6°C° 0 mm 2 mps 757 mmHg 77%

    20 September, Friday

    Time Temperature Precipitation Wind Pressure Humidity
    00:00 +6°C° 0 mm 2 mps 757 mmHg 78%
    01:00 +6°C° 0 mm 2 mps 757 mmHg 78%
    02:00 +5°C° 0 mm 3 mps 757 mmHg 79%
    03:00 +5°C° 0 mm 3 mps 757 mmHg 81%
    04:00 +4°C° 0 mm 3 mps 757 mmHg 83%
    05:00 +5°C° 0 mm 4 mps 757 mmHg 80%
    06:00 +6°C° 0 mm 4 mps 757 mmHg 78%
    07:00 +7°C° 0 mm 4 mps 757 mmHg 75%
    08:00 +9°C° 0 mm 5 mps 757 mmHg 69%
    09:00 +10°C° 0 mm 5 mps 757 mmHg 62%
    10:00 +13°C° 0 mm 5 mps 757 mmHg 56%
    11:00 +13°C° 0.1 mm 5 mps 757 mmHg 55%
    12:00 +14°C° 0.1 mm 5 mps 757 mmHg 53%
    13:00 +14°C° 0.1 mm 5 mps 757 mmHg 52%
    14:00 +14°C° 0.1 mm 4 mps 757 mmHg 53%
    15:00 +14°C° 0.1 mm 4 mps 757 mmHg 55%
    16:00 +14°C° 0.1 mm 3 mps 757 mmHg 56%
    17:00 +12°C° 0 mm 3 mps 757 mmHg 61%
    18:00 +12°C° 0 mm 2 mps 757 mmHg 66%
    19:00 +10°C° 0 mm 2 mps 757 mmHg 71%
    20:00 +10°C° 0 mm 2 mps 757 mmHg 73%
    21:00 +10°C° 0 mm 2 mps 757 mmHg 74%
    22:00 +10°C° 0 mm 2 mps 757 mmHg 75%
    23:00 +10°C° 0 mm 2 mps 757 mmHg 79%

    21 September, Saturday

    Time Temperature Precipitation Wind Pressure Humidity
    00:00 +10°C° 0 mm 2 mps 758 mmHg 83%
    01:00 +10°C° 0 mm 2 mps 758 mmHg 86%
    02:00 +10°C° 0 mm 2 mps 757 mmHg 88%
    03:00 +10°C° 0 mm 2 mps 757 mmHg 90%
    04:00 +12°C° 0 mm 2 mps 757 mmHg 91%
    05:00 +12°C° 0 mm 2 mps 757 mmHg 90%
    06:00 +12°C° 0 mm 2 mps 757 mmHg 90%
    07:00 +12°C° 0 mm 2 mps 758 mmHg 89%
    08:00 +13°C° 0 mm 2 mps 758 mmHg 83%
    09:00 +14°C° 0 mm 2 mps 758 mmHg 78%
    10:00 +16°C° 0 mm 2 mps 759 mmHg 72%
    11:00 +16°C° 0 mm 2 mps 758 mmHg 68%
    12:00 +17°C° 0 mm 2 mps 758 mmHg 64%
    13:00 +18°C° 0 mm 2 mps 758 mmHg 60%
    14:00 +18°C° 0 mm 2 mps 758 mmHg 61%
    15:00 +18°C° 0 mm 2 mps 758 mmHg 62%
    16:00 +18°C° 0 mm 2 mps 758 mmHg 63%
    17:00 +16°C° 0 mm 2 mps 758 mmHg 68%
    18:00 +15°C° 0 mm 1 mps 758 mmHg 73%
    19:00 +13°C° 0 mm 1 mps 758 mmHg 78%
    20:00 +13°C° 0 mm 1 mps 758 mmHg 80%
    21:00 +13°C° 0 mm 1 mps 758 mmHg 81%
    22:00 +12°C° 0 mm 1 mps 759 mmHg 82%
    23:00 +12°C° 0 mm 1 mps 759 mmHg 84%

    22 September, Sunday

    Time Temperature Precipitation Wind Pressure Humidity
    00:00 +12°C° 0 mm 1 mps 759 mmHg 85%
    01:00 +11°C° 0 mm 1 mps 759 mmHg 87%
    02:00 +11°C° 0 mm 1 mps 759 mmHg 87%
    03:00 +11°C° 0 mm 1 mps 759 mmHg 87%
    04:00 +11°C° 0 mm 1 mps 759 mmHg 88%
    05:00 +11°C° 0 mm 1 mps 759 mmHg 85%
    06:00 +12°C° 0 mm 1 mps 759 mmHg 82%
    07:00 +13°C° 0 mm 1 mps 759 mmHg 79%
    08:00 +15°C° 0 mm 1 mps 759 mmHg 72%
    09:00 +16°C° 0 mm 2 mps 759 mmHg 65%
    10:00 +18°C° 0 mm 2 mps 759 mmHg 57%
    11:00 +19°C° 0 mm 3 mps 759 mmHg 53%
    12:00 +21°C° 0 mm 3 mps 759 mmHg 50%
    13:00 +22°C° 0 mm 3 mps 758 mmHg 46%
    14:00 +21°C° 0 mm 3 mps 758 mmHg 47%
    15:00 +21°C° 0 mm 3 mps 758 mmHg 49%
    16:00 +21°C° 0 mm 3 mps 758 mmHg 50%
    17:00 +19°C° 0 mm 3 mps 758 mmHg 55%
    18:00 +17°C° 0 mm 3 mps 758 mmHg 61%
    19:00 +16°C° 0 mm 3 mps 757 mmHg 66%
    20:00 +14°C° 0 mm 3 mps 757 mmHg 68%
    21:00 +13°C° 0 mm 3 mps 757 mmHg 70%
    22:00 +13°C° 0 mm 3 mps 758 mmHg 72%
    23:00 +12°C° 0 mm 3 mps 757 mmHg 73%
    Show more